Weather History for Starkville, MS

Change the Weather History Date:

Friday, November 22, 2013

  Actual Average Record
Temperature  
Mean Temperature 56 °F -  
Max Temperature 60 °F 59 °F 71 °F (2012)
Min Temperature 51 °F 39 °F 33 °F (2012)
Degree Days  
Heating Degree Days 10    
Growing Degree Days 6 (Base 50)    
Moisture  
Dew Point 56 °F    
Average Humidity 94    
Maximum Humidity 100    
Minimum Humidity 88    
Precipitation  
Precipitation 0.52 in - - ()
Sea Level Pressure  
Sea Level Pressure 30.23 in    
Wind  
Wind Speed 4 mph (East)    
Max Wind Speed 10 mph    
Max Gust Speed 17 mph    
Visibility 7 miles    
Events Rain    
Averages and records for this station are not official NWS values.
T = Trace of Precipitation, MM = Missing Value Source: NWS Daily Summary

Daily Weather History Graph

Daily Weather History Graph

Search for Another Location

Airport:

Trip Planner

Search our weather history database for the weather conditions in past years. The results will help you decide how hot, cold, wet, or windy it might be!

Date:

Astronomy

Nov. 22, 2013 Rise Set
Actual Time 6:33 AM CST 4:49 PM CST
Civil Twilight 6:06 AM CST 5:16 PM CST
Nautical Twilight 5:36 AM CST 5:46 PM CST
Astronomical Twilight 5:06 AM CST 6:16 PM CST
Moon 9:17 PM CST (11/22) 10:19 AM CST (11/22)
Length of Visible Light 11h 09m
Length of Day
10h 15m
Waning Gibbous, 78% of the Moon is Illuminated
Nov 22
Waning Gibbous
Nov 25
Last Quarter
Dec 2
New
Dec 9
First Quarter
Dec 17
Full

Hourly Weather History & Observations

Time (CST) Temp. Dew Point Humidity Pressure Visibility Wind Dir Wind Speed Gust Speed Precip Events Conditions
12:15 AM 59.0 °F 55.4 °F 88% 30.24 in 7.0 mi SSE 4.6 mph - N/A Rain Light Rain
12:35 AM 59.0 °F 55.4 °F 88% 30.23 in 10.0 mi SE 3.5 mph - N/A   Overcast
12:55 AM 59.0 °F 55.4 °F 88% 30.22 in 10.0 mi SE 6.9 mph - N/A   Overcast
1:15 AM 59.0 °F 57.2 °F 94% 30.23 in 7.0 mi South 4.6 mph - N/A   Overcast
1:35 AM 59.0 °F 57.2 °F 94% 30.23 in 7.0 mi South 4.6 mph - N/A   Overcast
1:55 AM 59.0 °F 57.2 °F 94% 30.24 in 7.0 mi Calm Calm - N/A   Overcast
2:15 AM 59.0 °F 57.2 °F 94% 30.23 in 5.0 mi Calm Calm - 0.02 in Rain Rain
2:35 AM 59.0 °F 57.2 °F 94% 30.23 in 5.0 mi Calm Calm - 0.04 in Rain Light Rain
2:55 AM 59.0 °F 57.2 °F 94% 30.22 in 5.0 mi Calm Calm - 0.04 in Rain Light Rain
3:15 AM 59.0 °F 57.2 °F 94% 30.22 in 4.0 mi Calm Calm - 0.05 in Rain Rain
3:35 AM 59.0 °F 57.2 °F 94% 30.22 in 4.0 mi Calm Calm - 0.10 in Rain Light Rain
3:55 AM 59.0 °F 55.4 °F 88% 30.20 in 7.0 mi SE 8.1 mph - 0.10 in   Overcast
4:15 AM 57.2 °F 55.4 °F 94% 30.20 in 10.0 mi SSE 6.9 mph - N/A   Overcast
4:35 AM 57.2 °F 55.4 °F 94% 30.21 in 10.0 mi SE 5.8 mph - N/A   Overcast
4:55 AM 57.2 °F 55.4 °F 94% 30.20 in 10.0 mi SE 6.9 mph - N/A   Overcast
5:15 AM 57.2 °F 55.4 °F 94% 30.21 in 10.0 mi SSE 5.8 mph - N/A   Overcast
5:35 AM 57.2 °F 55.4 °F 94% 30.20 in 10.0 mi SSE 6.9 mph - N/A   Overcast
5:55 AM 57.2 °F 55.4 °F 94% 30.20 in 10.0 mi SSE 6.9 mph - N/A   Overcast
6:15 AM 57.2 °F 55.4 °F 94% 30.20 in 10.0 mi SSE 5.8 mph - N/A   Overcast
6:35 AM 59.0 °F 55.4 °F 88% 30.20 in 10.0 mi SSE 6.9 mph - N/A   Overcast
6:55 AM 59.0 °F 55.4 °F 88% 30.21 in 10.0 mi SSE 4.6 mph - N/A   Overcast
7:15 AM 59.0 °F 55.4 °F 88% 30.22 in 10.0 mi SSE 5.8 mph - N/A   Overcast
7:35 AM 59.0 °F 55.4 °F 88% 30.22 in 10.0 mi SSE 5.8 mph - N/A   Mostly Cloudy
7:55 AM 59.0 °F 55.4 °F 88% 30.23 in 10.0 mi SSE 3.5 mph - N/A   Overcast
8:15 AM 59.0 °F 55.4 °F 88% 30.28 in 10.0 mi NW 9.2 mph - N/A   Overcast
8:35 AM 59.0 °F 55.4 °F 88% 30.28 in 4.0 mi Calm Calm - 0.07 in Rain Heavy Rain
8:55 AM 59.0 °F 55.4 °F 88% 30.27 in 7.0 mi ESE 4.6 mph - 0.07 in Rain Rain
9:15 AM 57.2 °F 55.4 °F 94% 30.26 in 4.0 mi ESE 6.9 mph - 0.06 in Rain Heavy Rain
9:35 AM 57.2 °F 55.4 °F 94% 30.26 in 2.5 mi Calm Calm - 0.12 in Rain Rain
9:55 AM 59.0 °F 57.2 °F 94% 30.25 in 3.0 mi Calm Calm - 0.20 in Rain Light Rain
10:15 AM 59.0 °F 57.2 °F 94% 30.25 in 5.0 mi Calm Calm - 0.02 in Rain Light Rain
10:35 AM 59.0 °F 57.2 °F 94% 30.25 in 5.0 mi SE 3.5 mph - 0.02 in   Light Drizzle
10:55 AM 59.0 °F 59.0 °F 100% 30.24 in 3.0 mi Calm Calm - 0.02 in Rain Light Rain
11:15 AM 59.0 °F 59.0 °F 100% 30.23 in 3.0 mi SSE 10.4 mph - 0.01 in Rain Rain
11:35 AM 59.0 °F 59.0 °F 100% 30.22 in 3.0 mi Calm Calm - 0.02 in Rain Rain
11:55 AM 59.0 °F 59.0 °F 100% 30.21 in 4.0 mi Calm Calm - 0.04 in Rain Light Rain
12:15 PM 59.0 °F 59.0 °F 100% 30.22 in 3.0 mi Calm Calm - 0.02 in Rain Light Rain
12:35 PM 59.0 °F 59.0 °F 100% 30.23 in 4.0 mi Calm Calm - 0.04 in Rain Rain
12:55 PM 59.0 °F 59.0 °F 100% 30.21 in 4.0 mi Calm Calm - 0.05 in   Drizzle
1:15 PM 60.8 °F 59.0 °F 94% 30.22 in 5.0 mi Calm Calm - N/A   Overcast
1:35 PM 60.8 °F 59.0 °F 94% 30.21 in 5.0 mi Calm Calm - N/A   Overcast
1:55 PM 60.8 °F 59.0 °F 94% 30.21 in 4.0 mi Calm Calm - N/A   Overcast
2:15 PM 60.8 °F 59.0 °F 94% 30.21 in 5.0 mi Calm Calm - N/A   Overcast
2:35 PM 60.8 °F 60.8 °F 100% 30.20 in 5.0 mi Calm Calm - N/A   Overcast
2:55 PM 60.8 °F 60.8 °F 100% 30.20 in 7.0 mi Calm Calm - N/A   Overcast
3:15 PM 60.8 °F 60.8 °F 100% 30.21 in 4.0 mi NW 3.5 mph - N/A   Overcast
3:35 PM 60.8 °F 60.8 °F 100% 30.21 in 7.0 mi Calm Calm - N/A   Overcast
3:55 PM 60.8 °F 60.8 °F 100% 30.20 in 7.0 mi Calm Calm - N/A   Overcast
4:15 PM 60.8 °F 60.8 °F 100% 30.20 in 7.0 mi Calm Calm - N/A   Overcast
4:35 PM 60.8 °F 60.8 °F 100% 30.20 in 10.0 mi Calm Calm - N/A   Overcast
4:55 PM 60.8 °F 60.8 °F 100% 30.20 in 10.0 mi Calm Calm - N/A   Overcast
5:15 PM 60.8 °F 59.0 °F 94% 30.20 in 10.0 mi Calm Calm - N/A   Overcast
5:35 PM 60.8 °F 59.0 °F 94% 30.20 in 10.0 mi Calm Calm - N/A   Overcast
5:55 PM 60.8 °F 59.0 °F 94% 30.20 in 10.0 mi NNE 8.1 mph - N/A   Overcast
6:15 PM 60.8 °F 59.0 °F 94% 30.21 in 10.0 mi North 4.6 mph - N/A   Overcast
6:35 PM 60.8 °F 59.0 °F 94% 30.22 in 10.0 mi North 9.2 mph - N/A   Overcast
6:55 PM 57.2 °F 55.4 °F 94% 30.24 in 7.0 mi North 8.1 mph 16.1 mph N/A   Overcast
7:15 PM 55.4 °F 55.4 °F 100% 30.25 in 7.0 mi North 6.9 mph - N/A   Overcast
7:35 PM 55.4 °F 53.6 °F 94% 30.25 in 5.0 mi NNW 8.1 mph - N/A   Overcast
7:55 PM 55.4 °F 53.6 °F 94% 30.26 in 10.0 mi North 5.8 mph - N/A   Overcast
8:15 PM 55.4 °F 53.6 °F 94% 30.27 in 10.0 mi North 5.8 mph - N/A   Overcast
8:35 PM 55.4 °F 53.6 °F 94% 30.27 in 10.0 mi North 4.6 mph - N/A   Overcast
8:55 PM 55.4 °F 53.6 °F 94% 30.27 in 10.0 mi North 8.1 mph - N/A   Overcast
9:15 PM 55.4 °F 53.6 °F 94% 30.27 in 10.0 mi North 3.5 mph - N/A   Overcast
9:35 PM 53.6 °F 51.8 °F 94% 30.27 in 10.0 mi North 5.8 mph - N/A   Overcast
9:55 PM 53.6 °F 51.8 °F 94% 30.27 in 10.0 mi North 4.6 mph - N/A   Overcast
10:15 PM 53.6 °F 51.8 °F 94% 30.28 in 10.0 mi North 3.5 mph - N/A   Overcast
10:35 PM 53.6 °F 51.8 °F 94% 30.29 in 10.0 mi North 6.9 mph - N/A   Overcast
10:55 PM 53.6 °F 51.8 °F 94% 30.30 in 10.0 mi NNW 6.9 mph - N/A   Overcast
11:15 PM 51.8 °F 50.0 °F 94% 30.29 in 4.0 mi North 5.8 mph 17.3 mph N/A   Overcast
11:35 PM 51.8 °F 50.0 °F 94% 30.29 in 4.0 mi Calm Calm - N/A   Overcast
11:55 PM 51.8 °F 50.0 °F 94% 30.29 in 4.0 mi North 3.5 mph - N/A   Overcast